CZ-6A DEB, 60798

Orbit data source: Space-Track

CZ-6A DEB, 60798 is space debris in LEO originally from a launch on Tue, 06 Aug 2024 UTC launched from the Taiyaun Space Center, China (TSC). Debris objects in space refer to the collection of defunct objects orbiting the Earth. Examples of debris include non-operational satellites, rocket bodies, and fragments generated from explosions, collisions, or faulty payload assembly.

Loading next visibility...
Identifier
60798, 2024-140FZ
Orbit
LEO
Country
Flag of CNCN / PRC
Related business
Manufacturer
SAST
Mission
Spacecraft
Bus & Motor
Unknown
Mass
Unknown
Launch date (UTC)
2024-08-06 (1 year ago)
Launch vehicle
Unknown
Launch site
Taiyaun Space Center, China (TSC)
Object type
Payload
Rocket body
Debris
Shape & HBR
Unknown shape, 0.2 m
Radar Cross Section
Medium (>0.1 m² and <1 m²)

Expand to show TLE details & history
Last TLE update: 19 hours ago

TLE from 19 hours ago
0 CZ-6A DEB
1 60798U 24140FZ  25312.74602043  .00000429  00000-0  21807-3 0  9996
2 60798  89.0501 303.0020 0075560 187.4387 172.5685 14.12631875 64051
Epoch: 2025-11-08T17:54Z
TLE epoch observation values (Epoch: 2025-11-08T17:54:16.165Z)
Latitude
-0.00002°
Longitude
-13.73657°
Altitude
907.6 km
Speed
7.37 km/s
True Right ascension
20h 12m 00s
True Declination
0° 00' 00"
Sunlit
Object was in daylight at epoch
Visualization orbit readout
Latitude
Unknown
Longitude
Unknown
Altitude
Unknown
Speed
Unknown
Apparent Right ascension
Unknown
Apparent Declination
Unknown
Sunlit
N/A
Visualization observer readout
Local Sidereal Time
08:54:41
Azimuth
Unknown
Elevation
Unknown
Doppler factor
Unknown
Orbital elements
Apogee altitude
901.936 km
Perigee altitude
792.745 km
Semi-major axis
7,225.478 km
Eccentricity
0.00756
Inclination
89.0501°
RAAN
303.002°
Arg. of periapsis
187.4387°
True anomaly
172.67945°
Mean anomaly
172.5685°
Eccentric anomaly
172.62408°
Mean motion
3.53381 °/min
Orbital period
101.87 mins
BSTAR
0.00021807
Loading maneuver chart data...
Computing Atmospheric mass density...
Loading historical data...
Loading historical data...
Loading historical data...
Loading historical data...
Loading historical data...
Loading historical data...
Loading historical data...

Documentation

Showing up to 5 results
|